Regional Weather Roundup
Issued by NWS

Home | Current Version | Previous Version | Graphics & Text | Print | Product List | Glossary On
Versions: 1 2 3 4 5 6 7 8 9 10 11 12 13 14 15 16 17 18 19 20 21 22 23 24 25 26 27 28 29 30 31 32 33 34 35 36 37 38 39 40 41 42 43 44 45 46 47 48 49 50
000
ASUS43 KMKX 240100
RWRWI

WISCONSIN REGIONAL WEATHER ROUNDUP
NATIONAL WEATHER SERVICE MILWAUKEE/SULLIVAN WI
800 PM CDT SUN APR 23 2017

NOTE: "FAIR" INDICATES FEW OR NO CLOUDS BELOW 12,000 FEET WITH NO
SIGNIFICANT WEATHER AND/OR OBSTRUCTIONS TO VISIBILITY.

WIZ001-002-006>008-014>016-023>028-240200-
NORTHWEST WISCONSIN

CITY           SKY/WX    TMP DP  RH WIND       PRES   REMARKS
SUPERIOR ARPT  CLOUDY    34  28  78 NE14G23   30.11S WCI  25
ASHLAND        CLOUDY    35  27  72 NE10      30.12S WCI  27
HAYWARD        CLOUDY    37  29  72 NE13      30.03S WCI  29
SIREN          PTCLDY    44  33  66 NE14G22   29.98S
CUMBERLAND     PTCLDY    46  36  66 NE12G17   29.95F
RICE LAKE      PTCLDY    54  39  57 NE6       29.96S
CHETEK         PTCLDY    54  40  59 E8        29.94F
LADYSMITH      CLOUDY    50  38  62 NE12      30.00R
EAU CLAIRE     MOCLDY    60  41  49 E6        29.92S
MENOMONIE      PTCLDY    64  38  38 E5        29.91F
NEW RICHMOND   CLOUDY    59  44  56 NE8       29.90F
OSCEOLA        MOCLDY    55  41  58 NE8       29.93F
$$

WIZ003>005-009-010-017-018-240200-
NORTH CENTRAL WISCONSIN

CITY           SKY/WX    TMP DP  RH WIND       PRES   REMARKS
MANITOWISH WTR CLOUDY    38  32  78 NE7       30.06S WCI  33
ARBOR VITAE    CLOUDY    42  35  76 NE5       30.05S
WOODRUFF       CLOUDY    42  35  76 NE5       30.05S
RHINELANDER    MOCLDY    44  34  67 NE7G17    30.05R
EAGLE RIVER    CLOUDY    39  31  73 E8        30.06S WCI  33
LAND O LAKES   MOCLDY    38  28  66 NE9       30.09S WCI  32
PHILLIPS       PTCLDY    44  36  73 NE9G16    30.02R
TOMAHAWK       CLOUDY    46  34  65 NE6       30.03S
MEDFORD        CLOUDY    58  43  56 E5        29.97R
MERRILL        MOCLDY    54  41  62 SE13      30.01R
$$

WIZ029-030-035-036-043>047-240200-
CENTRAL WISCONSIN

CITY           SKY/WX    TMP DP  RH WIND       PRES   REMARKS
WAUSAU         PTCLDY    49  38  65 SE16      30.01R
MOSINEE        PTCLDY    50  39  66 E14G20    30.03R
MARSHFIELD     PTCLDY    55  43  63 E14       29.98R
STEVENS POINT  CLOUDY    48  39  69 E12       30.03R
WAUPACA        CLEAR     50  40  67 E10       30.06S
WAUTOMA        PTCLDY    50  41  71 E9        30.04R
WISC RAPIDS    MOCLDY    54  44  69 SE15G23   30.01R
CAMP DOUGLAS   NOT AVBL
$$

WIZ011>013-019>022-031-037>040-048>050-240200-
NORTHEAST WISCONSIN

CITY           SKY/WX    TMP DP  RH WIND       PRES   REMARKS
ANTIGO         PTCLDY    46  36  68 SE16      30.05R
SHAWANO        CLOUDY    45  35  66 E9        30.10R
OCONTO         CLOUDY    40  30  67 NE7       30.12S WCI  35
STURGEON BAY   CLOUDY    38  27  64 NE8       30.13S WCI  32
GREEN BAY      CLOUDY    43  35  73 E13       30.11R
MANITOWOC      NOT AVBL
APPLETON       PTCLDY    45  34  65 E8        30.06S
CLINTONVILLE   CLOUDY    43  32  65 E14       30.09R
OSHKOSH        MOCLDY    44  36  73 E12       30.06S
$$

WIZ032>034-041-042-053>061-240200-
SOUTHWEST WISCONSIN

CITY           SKY/WX    TMP DP  RH WIND       PRES   REMARKS
LA CROSSE      PTCLDY    68  35  29 S7        29.93F
SPARTA         CLOUDY    65  32  29 S3        29.96S
VIROQUA        PTCLDY    64  32  31 S3        29.97F
BOSCOBEL       PTCLDY    63  36  36 CALM      29.97F
PRAIRIE DU CHI CLOUDY    68  26  20 CALM      29.96F
PLATTEVILLE    CLEAR     66  36  32 S3        30.00F
$$

WIZ056-057-062-063-064-067-068-240200-
SOUTH CENTRAL WISCONSIN

CITY           SKY/WX    TMP DP  RH WIND       PRES   REMARKS
REEDSBURG      CLEAR     65  34  32 SW3       29.97S
BARABOO/DELLS  CLEAR     61  44  52 E12       29.98S
LONE ROCK      NOT AVBL
MINERAL POINT  CLEAR     66  30  26 S3        30.00F
MADISON        MOCLDY    65  36  34 CALM      29.99S
MIDDLETON      CLEAR     66  32  28 SW6       30.00S
WATERTOWN      CLOUDY    47  38  70 E10       30.03S
MONROE         CLEAR     64  32  29 S3        30.00S
JANESVILLE     MOCLDY    63  43  48 E12G17    30.01R
$$

WIZ051-052-058>065-066-070>072-240200-
SOUTHEAST WISCONSIN

CITY           SKY/WX    TMP DP  RH WIND       PRES   REMARKS
MILWAUKEE      MOCLDY    40  34  79 NE12      30.08F WCI  33
WAUKESHA       CLEAR     39  34  81 E9        30.08S WCI  33
MILWAUKEE/TIMM CLEAR     39  32  75 NE7       30.09F WCI  34
RACINE         PTCLDY    40  35  83 N10       30.09S WCI  33
KENOSHA        PTCLDY    41  36  82 NE8       30.07S
FOND DU LAC    CLOUDY    44  34  67 E10       30.07S
SHEBOYGAN      PTCLDY    38  32  79 NE16      30.09F WCI  29
WEST BEND      PTCLDY    41  34  75 E14       30.08S
JUNEAU         PTCLDY    47  39  72 E10       30.05R
$$

LSZ147-162-240200-
LAKE SUPERIOR

STATION/POSITION TIME  TEMP    WIND        PRES    WAVE
                       AIR SEA DIR/SP/G            HT/PER
                 (UTC) (F)     (DEG/KT/KT) (MB)    (FT/S)
DEVILS ISLAND    0000   34      60/ 13/ 16 1021.9F
SAXON HARBOR     0040   37      50/ 14/ 16 1019.3F
$$

LMZ867-665-643>646-240200-
LAKE MICHIGAN

STATION/POSITION TIME  TEMP    WIND        PRES    WAVE
                       AIR SEA DIR/SP/G            HT/PER
                 (UTC) (F)     (DEG/KT/KT) (MB)    (FT/S)
CHAMBERS ISLAND  0030   38      20/ 12/ 14 1020.0F
N MID LAKE BUOY  2350   37 37   70/  8/  8 1022.2R   1/ 4
NORTHPORT PIER   0040   39      40/  8/ 11 1020.7S
SISTER BAY       2351   40     110/  7/ 10   N/A
KEWAUNEE LAKESHO 0030   38      40/ 16/ 19 1019.6F
SHEBOYGAN LAKESH 0000   38      20/ 18/ 20 1019.4F
PORT WASHINGTON  0040   41      40/ 11/ 16 1020.0S
MILWAUKEE LAKESH 0030   39      20/ 13/ 15   N/A
S MID LAKE BUOY  2350   41 42   30/  8/ 10 1018.5    0
KENOSHA   LAKESH 0000   41      20/ 15/ 18 1018.3
$$

TC  - TEMPERATURE IN CELSIUS
VSB - VISIBILITY IN STATUTE MILES
WCI - WIND CHILL INDEX
HX  - HEAT INDEX





USA.gov is the U.S. government's official web portal to all federal, state and local government web resources and services.